Regional Weather Roundup
Issued by NWS

Home | Current Version | Previous Version | Text Only | Print | Product List | Glossary Off
Versions: 1 2 3 4 5 6 7 8 9 10 11 12 13 14 15 16 17 18 19 20 21 22 23 24 25 26 27 28 29 30 31 32 33 34 35 36 37 38 39 40 41 42 43 44 45 46 47 48 49 50

000
ASUS44 KMEG 161500
RWRTN
TENNESSEE HOURLY STATE WEATHER ROUNDUP
NATIONAL WEATHER SERVICE MEMPHIS TN
1000 AM CDT WED APR 16 2014

TNZ002-004-019-021-049-052-054-088>092-161600-
WEST TENNESSEE

CITY           SKY/WX    TMP DP  RH WIND       PRES   REMARKS
MEMPHIS INTL   MOSUNNY   48  24  39 SE7       30.29S
NWS MEMPHIS      N/A     47 N/A N/A MISG        N/A
JACKSON        SUNNY     45  24  43 E8        30.32R
DYERSBURG      SUNNY     45  21  39 SE10      30.34R
UNION CITY     SUNNY     43  23  45 E10       30.32R
LEXINGTON      SUNNY     43  21  42 E9        30.31R
$$

TNZ008-025-027-028-033-062-065-066-161600-
NORTH MIDDLE TENNESSEE

CITY           SKY/WX    TMP DP  RH WIND       PRES   REMARKS
NASHVILLE      MOSUNNY   45  22  40 E10       30.34R
CLARKSVILLE    SUNNY     43  24  47 E13       30.34S
CROSSVILLE     SUNNY     40  19  43 E9G18     30.30R WCI  34
$$

TNZ061-075-076-078-094-096-097-161600-
SOUTH MIDDLE TENNESSEE

CITY           SKY/WX    TMP DP  RH WIND       PRES   REMARKS
TULLAHOMA      SUNNY     43  19  39 E7        30.30R
WINCHESTER     SUNNY     45  21  39 E8        30.30S
MCMINNVILLE    SUNNY     43  25  49 E9        30.31R
COLUMBIA       SUNNY     45  28  53 E13       30.31R
$$

TNZ017-018-042-046-047-161600-
NORTHEAST TENNESSEE

CITY           SKY/WX    TMP DP  RH WIND       PRES   REMARKS
TRI CITIES     SUNNY     39  18  42 NE8       30.36S WCI  33
ELIZABETHTON   SUNNY     37  18  44 CALM      30.35S
$$

TNZ012-013-036-069-073-074-161600-
CENTRAL EAST TENNESSEE

CITY           SKY/WX    TMP DP  RH WIND       PRES   REMARKS
KNOXVILLE      NOT AVBL
OAK RIDGE      SUNNY     43  23  45 VRB7G17   30.36R
$$

TNZ083-085-099-161600-
SOUTHEAST TENNESSEE

CITY           SKY/WX    TMP DP  RH WIND       PRES   REMARKS
CHATTANOOGA    MOSUNNY   46  23  40 NE8       30.32R
$$

SKY/WX REPORTED AS FAIR MEANS FEW OR NO CLOUDS BELOW
12 THOUSAND FEET.




USA.gov is the U.S. government's official web portal to all federal, state and local government web resources and services.